Regional Weather Roundup
Issued by NWS

Home | Current Version | Previous Version | Graphics & Text | Print | Product List | Glossary On
Versions: 1 2 3 4 5 6 7 8 9 10 11 12 13 14 15 16 17 18 19 20 21 22 23 24 25 26 27 28 29 30 31 32 33 34 35 36 37 38 39 40 41 42 43 44 45 46 47 48 49 50
000
ASUS43 KDTX 222301
RWRMI
MICHIGAN HOURLY REGIONAL WEATHER ROUNDUP
NATIONAL WEATHER SERVICE DETROIT/PONTIAC MI
700 PM EDT WED MAR 22 2017

NOTE: "FAIR" INDICATES FEW OR NO CLOUDS BELOW 12,000 FEET WITH NO
SIGNIFICANT WEATHER AND/OR OBSTRUCTION TO VISIBILITY.

MIZ047>049-052>055-059>063-066>070-074>076-081>083-230000-
SOUTHEAST LOWER MICHIGAN

CITY           SKY/WX    TMP DP  RH WIND       PRES   REMARKS
ADRIAN         CLEAR     36  11  35 CALM      30.53S
ALMA           CLEAR     32   6  33 S5        30.55R WCI  27
ANN ARBOR      CLEAR     35   6  29 CALM      30.51F
BAD AXE        CLEAR     28   6  38 CALM      30.55S
CARO           CLEAR     29   4  34 E3        30.54S
DETROIT CITY   CLEAR     31  13  47 E6        30.55R WCI  25
DETROIT        PTCLDY    34  15  46 CALM      30.55R
FLINT          CLEAR     32   8  36 CALM      30.53F
GROSSE ILE     CLEAR     30  17  58 S9        30.55R WCI  22
HILLSDALE      CLEAR     34  10  37 CALM      30.49R
HOWELL         CLEAR     33   6  32 CALM      30.52S

CITY           SKY/WX    TMP DP  RH WIND       PRES   REMARKS
JACKSON        CLEAR     34   8  33 VRB3      30.51S
LAMBERTVILLE   CLEAR     33  16  48 E6        30.54R WCI  28
LANSING        CLEAR     33   6  32 CALM      30.53S
LAPEER         FAIR      32   8  37 CALM      30.53S
MASON          CLEAR     33  11  40 CALM      30.52R
MONROE         CLEAR     31  17  55 SE8       30.54S WCI  24
PONTIAC        PTCLDY    33   6  32 CALM      30.50S
PORT HOPE        N/A     24  11  57 CALM      30.55S
PORT HURON     CLEAR     25  12  58 NE7       30.57R WCI  17
TRI CITIES     CLEAR     31   5  33 SE10      30.55S WCI  22
MIDLAND        FAIR      34   7  33 S9        30.53R WCI  26
TROY           CLEAR     35   5  28 E6        30.55R WCI  30
SAGINAW HB     CLEAR     32  -4  21 SE6       30.56R WCI  26
$$
MIZ043>046-050>051-056>058-064>065-071>073-077>080-230000-
SOUTHWEST LOWER MICHIGAN

CITY           SKY/WX    TMP DP  RH WIND       PRES   REMARKS
BATTLE CREEK   CLEAR     36   8  31 VRB5      30.51S WCI  32
BENTON HARBOR  SUNNY     32  17  54 N6        30.52F WCI  26
BIG RAPIDS     CLEAR     35   0  22 CALM      30.49S
COLDWATER      CLEAR     35   8  31 CALM      30.50S
FREMONT        FAIR      34  14  43 W9        30.51S WCI  27
HOLLAND        SUNNY     33  18  53 W8        30.53S WCI  26
GRAND RAPIDS   MOCLDY    35  11  36 SE6       30.52S WCI  30
IONIA          FAIR      32   7  35 SE3       30.52S
KALAMAZOO      CLEAR     37   7  28 VRB5      30.51S WCI  33
LUDINGTON      CLOUDY    28  18  64 NW6       30.54S WCI  22
MARSHALL       CLEAR     35   6  30 SE3       30.50F
MOUNT PLEASANT CLEAR     33   4  29 S6        30.52S WCI  28
MUSKEGON       PTSUNNY   31  15  52 W8        30.54F WCI  23
SOUTH HAVEN    SUNNY     31  18  58 N7        30.53R WCI  24
$$
MIZ016>042-230000-
NORTHERN LOWER MICHIGAN

CITY           SKY/WX    TMP DP  RH WIND       PRES   REMARKS
ALPENA         CLEAR     31   4  31 CALM      30.52F
BEAVER ISLAND  CLEAR     26  15  62 SW7       30.55S WCI  18
BELLAIRE       CLEAR     29   9  43 CALM      30.55S
CADILLAC       CLEAR     34  -2  21 CALM      30.45F
CHARLEVOIX     CLEAR     26  13  57 W3        30.59S
FRANKFORT      CLEAR     27  14  58 N7        30.54F WCI  20
GAYLORD        CLEAR     30   5  34 W8        30.48S WCI  22
GRAYLING       CLEAR     32   0  24 W5        30.49S WCI  28
HARBOR SPRINGS CLEAR     25  14  63 SW8       30.55R WCI  16
HOUGHTON LAKE  CLEAR     32   0  25 SW5       30.49F WCI  27
MANISTEE       CLEAR     27  17  66 NW8       30.54S WCI  19
OSCODA         CLEAR     28  11  50 MISG      30.54S
PELLSTON       CLEAR     29   3  33 NW6       30.54S WCI  23
ROGERS CITY    CLEAR     28   9  44 N8        30.54S WCI  20
TRAVERSE CITY  PTCLDY    28  12  51 NE8       30.53F WCI  20
$$
MIZ007>008-015-230000-
EASTERN UPPER MICHIGAN

CITY           SKY/WX    TMP DP  RH WIND       PRES   REMARKS
KINROSS        CLEAR     22  10  60 N8        30.52S WCI  12
MACKINAC ISLAN CLEAR     25  13  61 W9        30.53S WCI  15
NEWBERRY       CLEAR     27  14  58 N8        30.51S WCI  19
S. S. MARIE    CLEAR     25   3  38 NW8       30.52S WCI  16
MUNISING         N/A     27  16  63 NE12      30.50F WCI  17
$$
MIZ004>006-011>014-085-230000-
CENTRAL UPPER MICHIGAN

CITY           SKY/WX    TMP DP  RH WIND       PRES   REMARKS
MANISTIQUE     CLEAR     27  18  69 SW9       30.52F WCI  17
ESCANABA       SUNNY     27  16  63 S10       30.52F WCI  17
MENOMINEE        N/A    N/A N/A N/A MISG        N/A
SAWYER-GWINN   SUNNY     30  14  51 NE7       30.45F WCI  23
$$
MIZ001>003-009>011-084-230000-
WESTERN UPPER MICHIGAN

CITY           SKY/WX    TMP DP  RH WIND       PRES   REMARKS
IRON MOUNTAIN  SUNNY     33   3  28 S6        30.44S WCI  28
HOUGHTON       SUNNY     28  11  48 E8        30.43F WCI  20
COPPER HARBOR    N/A     25  11  55 CALM      30.49F
IRONWOOD       SUNNY     36   4  26 S9        30.39F WCI  29
$$

ABBREVIATIONS USED IN REMARKS
   TC - TEMPERATURE IN CELSIUS
  WCI - WIND CHILL INDEX
   HX - HEAT INDEX
  VSB - VISIBILITY




USA.gov is the U.S. government's official web portal to all federal, state and local government web resources and services.